Location: Cornospital
(48.0620°N, 3.3837°W)
Time: 20:45:13
(UTC+00:00)

Cosmos 192 - Pass Details

Date: 17 June 2021
Orbit: 702 x 712 km, 74.0° (Epoch: 02 August)

Event Time Altitude Azimuth Distance (km) Brightness Sun altitude
Exits shadow 23:38:55 35° 180° (S) 1,140 4.8 -18.1°
Maximum altitude 23:40:56 67° 109° (ESE) 768 4.3 -18.1°
Drops below altitude 10° 23:45:49 10° 27° (NNE) 2,185 7.7 -18.2°
Sets 23:48:10 0° 25° (NNE) 3,106 8.7 -18.3°
